| time (UTC) | temp F | wind direction | speed MPH | gust MPH | rain 1hr in | rain 24hr in | rain mn in | humidity % | barometer mb |
| 20260505003533 | 82 | 78 | 0.0 | 1.0 | 0.00 | 0.00 | 0.00 | 39 | 1011.2 |
| 20260505002533 | 83 | 182 | 1.0 | 2.0 | 0.00 | 0.00 | 0.00 | 39 | 1011.1 |
| 20260505001533 | 83 | 45 | 1.0 | 3.0 | 0.00 | 0.00 | 0.00 | 38 | 1011.1 |
| 20260505000628 | 82 | 159 | 0.0 | 1.0 | 0.00 | 0.00 | 0.00 | 37 | 1011.1 |
| 20260504235530 | 83 | 208 | 1.0 | 2.0 | 0.00 | 0.00 | 0.00 | 35 | 1011.1 |
| 20260504234552 | 84 | 186 | 1.0 | 2.0 | 0.00 | 0.00 | 0.00 | 37 | 1011.2 |
| 20260504233533 | 82 | 86 | 1.0 | 3.0 | 0.00 | 0.00 | 0.00 | 35 | 1011.3 |
| 20260504232520 | 82 | 75 | 1.0 | 2.0 | 0.00 | 0.00 | 0.00 | 35 | 1011.3 |
| 20260504231605 | 83 | 169 | 1.0 | 2.0 | 0.00 | 0.00 | 0.00 | 38 | 1011.3 |
| 20260504230553 | 82 | 208 | 2.0 | 3.0 | 0.00 | 0.00 | 0.00 | 35 | 1011.3 |
| 20260504225528 | 81 | 180 | 1.0 | 3.0 | 0.00 | 0.00 | 0.00 | 37 | 1011.4 |
| 20260504224552 | 81 | 77 | 1.0 | 5.0 | 0.00 | 0.00 | 0.00 | 37 | 1011.4 |
| 20260504223533 | 81 | 171 | 1.0 | 3.0 | 0.00 | 0.00 | 0.00 | 36 | 1011.4 |
| 20260504222533 | 81 | 180 | 1.0 | 3.0 | 0.00 | 0.00 | 0.00 | 42 | 1011.6 |
| 20260504221600 | 80 | 98 | 0.0 | 2.0 | 0.00 | 0.00 | 0.00 | 39 | 1011.5 |
| 20260504220520 | 80 | 14 | 0.0 | 2.0 | 0.00 | 0.00 | 0.00 | 37 | 1011.8 |
| 20260504215544 | 80 | 50 | 2.0 | 3.0 | 0.00 | 0.00 | 0.00 | 36 | 1012.1 |
| 20260504214628 | 79 | 360 | 2.0 | 5.0 | 0.00 | 0.00 | 0.00 | 37 | 1012.0 |
| 20260504213548 | 80 | 6 | 2.0 | 5.0 | 0.00 | 0.00 | 0.00 | 37 | 1012.1 |
| 20260504212552 | 80 | 51 | 1.0 | 2.0 | 0.00 | 0.00 | 0.00 | 37 | 1012.1 |
| 20260504211616 | 79 | 70 | 1.0 | 2.0 | 0.00 | 0.00 | 0.00 | 39 | 1012.1 |
| 20260504210535 | 80 | 128 | 0.0 | 1.0 | 0.00 | 0.00 | 0.00 | 40 | 1012.2 |
| 20260504205600 | 80 | 359 | 2.0 | 6.0 | 0.00 | 0.00 | 0.00 | 41 | 1012.3 |
| 20260504204520 | 79 | 39 | 2.0 | 5.0 | 0.00 | 0.00 | 0.00 | 41 | 1012.2 |
| 20260504203544 | 79 | 44 | 1.0 | 5.0 | 0.00 | 0.00 | 0.00 | 41 | 1012.3 |
| 20260504202608 | 79 | 71 | 1.0 | 2.0 | 0.00 | 0.00 | 0.00 | 41 | 1012.3 |
| 20260504201548 | 79 | 49 | 1.0 | 2.0 | 0.00 | 0.00 | 0.00 | 42 | 1012.4 |
| 20260504200552 | 79 | 122 | 1.0 | 2.0 | 0.00 | 0.00 | 0.00 | 42 | 1012.4 |
| 20260504195656 | 78 | 128 | 1.0 | 3.0 | 0.00 | 0.00 | 0.00 | 43 | 1012.5 |
| 20260504194533 | 78 | 145 | 1.0 | 2.0 | 0.00 | 0.00 | 0.00 | 44 | 1012.4 |
| 20260504193600 | 78 | 83 | 1.0 | 2.0 | 0.00 | 0.00 | 0.00 | 44 | 1012.5 |
| 20260504192520 | 77 | 31 | 1.0 | 2.0 | 0.00 | 0.00 | 0.00 | 45 | 1012.6 |
| 20260504191545 | 76 | 96 | 2.0 | 3.0 | 0.00 | 0.00 | 0.00 | 47 | 1012.7 |
| 20260504190608 | 76 | 34 | 1.0 | 3.0 | 0.00 | 0.00 | 0.00 | 46 | 1012.9 |
| 20260504185528 | 76 | 27 | 1.0 | 5.0 | 0.00 | 0.00 | 0.00 | 47 | 1012.9 |
| 20260504184552 | 74 | 182 | 2.0 | 3.0 | 0.00 | 0.00 | 0.00 | 54 | 1012.8 |
| 20260504183616 | 75 | 174 | 1.0 | 2.0 | 0.00 | 0.00 | 0.00 | 52 | 1013.0 |
| 20260504182553 | 76 | 78 | 0.0 | 1.0 | 0.00 | 0.00 | 0.00 | 52 | 1013.0 |
| 20260504181600 | 74 | 58 | 1.0 | 2.0 | 0.00 | 0.00 | 0.00 | 53 | 1012.9 |
| 20260504180520 | 73 | 137 | 1.0 | 1.0 | 0.00 | 0.00 | 0.00 | 58 | 1012.8 |
| 20260504175544 | 73 | 148 | 1.0 | 2.0 | 0.00 | 0.00 | 0.00 | 57 | 1012.8 |
| 20260504174608 | 73 | 151 | 1.0 | 2.0 | 0.00 | 0.00 | 0.00 | 56 | 1012.9 |
| 20260504173528 | 73 | 131 | 0.0 | 1.0 | 0.00 | 0.00 | 0.00 | 54 | 1012.9 |
| 20260504172612 | 70 | 167 | 1.0 | 2.0 | 0.00 | 0.00 | 0.00 | 61 | 1012.9 |
| 20260504171616 | 71 | 143 | 1.0 | 1.0 | 0.00 | 0.00 | 0.00 | 60 | 1013.0 |
| 20260504170533 | 70 | 93 | 0.0 | 1.0 | 0.00 | 0.00 | 0.00 | 61 | 1013.0 |
| 20260504150552 | 57 | 114 | 0.0 | 1.0 | 0.00 | 0.00 | 0.00 | 85 | 1012.8 |
| 20260504140608 | 50 | 0.0 | 0.0 | 0.00 | 0.00 | 0.00 | 97 | 1012.4 | |
| 20260504130520 | 47 | 0.0 | 0.0 | 0.00 | 0.00 | 0.00 | 96 | 1012.1 | |
| 20260504110552 | 49 | 0.0 | 0.0 | 0.00 | 0.00 | 0.00 | 95 | 1012.0 | |
| 20260504100552 | 50 | 0.0 | 0.0 | 0.00 | 0.00 | 0.00 | 94 | 1011.8 | |
| 20260504081600 | 53 | 0.0 | 0.0 | 0.00 | 0.00 | 0.00 | 91 | 1011.7 | |
| 20260504080521 | 53 | 0.0 | 0.0 | 0.00 | 0.00 | 0.00 | 91 | 1011.8 | |
| 20260504050553 | 61 | 0.0 | 0.0 | 0.00 | 0.00 | 0.00 | 80 | 1011.7 | |
| 20260504045616 | 61 | 0.0 | 0.0 | 0.00 | 0.00 | 0.00 | 76 | 1011.8 | |
| 20260504044533 | 61 | 0.0 | 0.0 | 0.00 | 0.00 | 0.00 | 74 | 1011.6 | |
| 20260504043617 | 62 | 0.0 | 0.0 | 0.00 | 0.00 | 0.00 | 72 | 1011.7 | |
| 20260504042534 | 63 | 0.0 | 0.0 | 0.00 | 0.00 | 0.00 | 69 | 1011.6 | |
| 20260504041600 | 64 | 0.0 | 0.0 | 0.00 | 0.00 | 0.00 | 67 | 1011.5 | |
| 20260504040532 | 65 | 0.0 | 0.0 | 0.00 | 0.00 | 0.00 | 64 | 1011.5 | |
| 20260504035533 | 66 | 0.0 | 0.0 | 0.00 | 0.00 | 0.00 | 61 | 1011.4 | |
| 20260504034520 | 67 | 0.0 | 0.0 | 0.00 | 0.00 | 0.00 | 60 | 1011.2 | |
| 20260504033545 | 68 | 0.0 | 0.0 | 0.00 | 0.00 | 0.00 | 56 | 1011.2 | |
| 20260504032532 | 69 | 0.0 | 0.0 | 0.00 | 0.00 | 0.00 | 55 | 1011.2 | |
| 20260504031600 | 70 | 154 | 0.0 | 1.0 | 0.00 | 0.00 | 0.00 | 53 | 1011.4 |
| 20260504030532 | 71 | 81 | 0.0 | 1.0 | 0.00 | 0.00 | 0.00 | 52 | 1011.3 |
| 20260504025528 | 71 | 77 | 0.0 | 1.0 | 0.00 | 0.00 | 0.00 | 53 | 1011.3 |
| 20260504024552 | 72 | 71 | 0.0 | 1.0 | 0.00 | 0.00 | 0.00 | 52 | 1011.3 |
| 20260504023532 | 73 | 70 | 0.0 | 1.0 | 0.00 | 0.00 | 0.00 | 48 | 1011.4 |
| 20260504022521 | 74 | 0.0 | 0.0 | 0.00 | 0.00 | 0.00 | 48 | 1011.4 | |
| 20260504021545 | 75 | 0.0 | 0.0 | 0.00 | 0.00 | 0.00 | 47 | 1011.4 | |
| 20260504020553 | 76 | 0.0 | 0.0 | 0.00 | 0.00 | 0.00 | 46 | 1011.5 | |
| 20260504015532 | 76 | 87 | 1.0 | 2.0 | 0.00 | 0.00 | 0.00 | 44 | 1011.5 |
| 20260504014552 | 77 | 70 | 1.0 | 3.0 | 0.00 | 0.00 | 0.00 | 44 | 1011.6 |
| 20260504013532 | 78 | 210 | 0.0 | 1.0 | 0.00 | 0.00 | 0.00 | 44 | 1011.5 |
| 20260504012521 | 78 | 102 | 1.0 | 1.0 | 0.00 | 0.00 | 0.00 | 45 | 1011.7 |
| 20260504011533 | 79 | 215 | 2.0 | 5.0 | 0.00 | 0.00 | 0.00 | 43 | 1011.7 |
| 20260504010609 | 80 | 171 | 1.0 | 1.0 | 0.00 | 0.00 | 0.00 | 45 | 1011.8 |
| 20260504005533 | 80 | 114 | 1.0 | 3.0 | 0.00 | 0.00 | 0.00 | 43 | 1011.8 |
| 20260504004532 | 80 | 107 | 0.0 | 1.0 | 0.00 | 0.00 | 0.00 | 43 | 1011.9 |